EIN4356 LJLJ-EIDW

Flight info

Callsign EIN4356
Flight time N/A
Altitude 36000
Route GIMIX DCT ALD DCT SAD DCT LEQ DCT DET DCT HON L10 WAL DCT BAGSO BAGSO3R
Aircraft A320/M-SDE3FGHIRWY/LB1

Departure

Time 2026-04-21 16:49
Airport Ljubljana Jože Pučnik Airport (LJLJ)

Arrival

Time N/A
Airport Dublin Airport (EIDW)
Time Latitude Longitude Altitude Speed Heading
2026-04-21 16:22 46.23051 14.45373 1259 ft 0 kts 37°
2026-04-21 16:32 46.23051 14.45372 1258 ft 0 kts 37°
2026-04-21 16:43 46.23037 14.45357 1267 ft 4 kts 42°
2026-04-21 16:43 46.23019 14.45328 1263 ft 4 kts 62°
2026-04-21 16:44 46.23013 14.45295 1268 ft 4 kts 110°
2026-04-21 16:44 46.23018 14.45281 1262 ft 1 kts 125°
2026-04-21 16:44 46.23018 14.45280 1261 ft 0 kts 125°
2026-04-21 16:45 46.23008 14.45300 1262 ft 7 kts 125°
2026-04-21 16:46 46.22974 14.45370 1261 ft 9 kts 126°
2026-04-21 16:46 46.22916 14.45391 1262 ft 10 kts 211°
2026-04-21 16:46 46.22864 14.45336 1258 ft 8 kts 217°
2026-04-21 16:46 46.22817 14.45317 1258 ft 7 kts 174°
2026-04-21 16:47 46.22761 14.45327 1266 ft 9 kts 172°
2026-04-21 16:47 46.22688 14.45352 1263 ft 13 kts 164°
2026-04-21 16:47 46.22603 14.45354 1251 ft 3 kts 201°
2026-04-21 16:47 46.22584 14.45353 1251 ft 4 kts 168°
2026-04-21 16:48 46.22568 14.45373 1253 ft 1 kts 128°
2026-04-21 16:48 46.22560 14.45389 1260 ft 0 kts 128°
2026-04-21 16:48 46.22542 14.45420 1263 ft 17 kts 128°
2026-04-21 16:49 46.22308 14.45882 1244 ft 93 kts 127°
2026-04-21 16:49 46.21802 14.46872 1296 ft 143 kts 126°
2026-04-21 16:49 46.21208 14.48025 1984 ft 143 kts 127°
2026-04-21 16:49 46.20619 14.49170 2682 ft 144 kts 123°
2026-04-21 16:50 46.19872 14.50258 2959 ft 170 kts 153°
2026-04-21 16:50 46.18614 14.50245 3191 ft 203 kts 202°
2026-04-21 16:50 46.17577 14.48709 3457 ft 234 kts 247°
2026-04-21 16:50 46.17454 14.46291 3823 ft 257 kts 287°
2026-04-21 16:51 46.18290 14.43933 4369 ft 271 kts 308°
2026-04-21 16:51 46.19471 14.41821 5177 ft 276 kts 313°
2026-04-21 16:51 46.20733 14.39725 6121 ft 277 kts 313°
2026-04-21 16:51 46.21965 14.37582 7045 ft 278 kts 311°
2026-04-21 16:52 46.23149 14.35372 7956 ft 279 kts 309°
2026-04-21 16:52 46.24286 14.33108 8922 ft 278 kts 308°
2026-04-21 16:52 46.25390 14.30803 9845 ft 280 kts 306°
2026-04-21 16:52 46.26494 14.28432 10419 ft 293 kts 305°
2026-04-21 16:53 46.27668 14.25876 10666 ft 317 kts 305°
2026-04-21 16:53 46.28922 14.23123 10913 ft 337 kts 304°